FW5778 Weather Reports


time (UTC)temp
C
wind
direction
speed
KPH
gust
KPH
rain 1hr
cm
rain 24hr
cm
rain mn
cm
humidity
%
barometer
mb
20260502164028 17 130 11.3 19.3 0.00 0.00 0.00 26 1023.9
20260502163526 17 162 9.7 19.3 0.00 0.00 0.00 28 1024.0
20260502163028 17 160 9.7 17.7 0.00 0.00 0.00 29 1024.0
20260502162526 16 131 8.0 19.3 0.00 0.00 0.00 30 1024.0
20260502162024 16 141 9.7 22.5 0.00 0.00 0.00 30 1023.9
20260502161524 16 160 8.0 22.5 0.00 0.00 0.00 32 1023.9
20260502161024 16 140 6.4 17.7 0.00 0.00 0.00 32 1023.9
20260502160527 16 181 8.0 19.3 0.00 0.00 0.00 30 1023.9
20260502152015 15 153 6.4 16.1 0.00 0.00 0.00 32 1024.2
20260502151514 15 156 8.0 16.1 0.00 0.00 0.00 32 1024.2
20260502151013 15 131 8.0 12.9 0.00 0.00 0.00 33 1024.2
20260502150512 14 115 4.8 12.9 0.00 0.00 0.00 34 1024.3
20260502130547 8 175 1.6 6.4 0.00 0.00 0.00 46 1024.3
20260502123541 7 198 0.0 1.6 0.00 0.00 0.00 53 1024.1
20260502123047 6 200 0.0 3.2 0.00 0.00 0.00 54 1024.1
20260502122542 6 193 0.0 3.2 0.00 0.00 0.00 56 1024.0
20260502122041 6 201 0.0 0.0 0.00 0.00 0.00 57 1024.0
20260502121544 7 198 0.0 0.0 0.00 0.00 0.00 58 1024.0
20260502121039 7 198 0.0 0.0 0.00 0.00 0.00 57 1024.1
20260502120535 7 198 0.0 1.6 0.00 0.00 0.00 55 1024.0
20260502115535 7 158 0.0 4.8 0.00 0.00 0.00 53 1024.0
20260502115034 8 161 1.6 6.4 0.00 0.00 0.00 53 1023.9
20260502114535 8 162 1.6 6.4 0.00 0.00 0.00 54 1023.9
20260502114033 8 141 1.6 6.4 0.00 0.00 0.00 55 1023.9
20260502113533 8 195 1.6 6.4 0.00 0.00 0.00 54 1023.9
20260502113033 8 151 1.6 8.0 0.00 0.00 0.00 55 1023.9
20260502112532 8 164 3.2 9.7 0.00 0.00 0.00 57 1023.9
20260502112032 8 185 4.8 9.7 0.00 0.00 0.00 59 1023.8
20260502111538 8 164 1.6 11.3 0.00 0.00 0.00 60 1023.9
20260502111032 8 212 3.2 9.7 0.00 0.00 0.00 59 1023.9
20260502110531 8 158 3.2 9.7 0.00 0.00 0.00 58 1023.9
20260502110035 8 154 3.2 9.7 0.00 0.00 0.00 56 1023.9
20260502105531 8 217 1.6 12.9 0.00 0.00 0.00 55 1023.9
20260502105028 8 173 4.8 12.9 0.00 0.00 0.00 54 1024.0
20260502104529 8 148 3.2 9.7 0.00 0.00 0.00 54 1024.0
20260502104028 8 165 1.6 4.8 0.00 0.00 0.00 54 1024.0
20260502103528 8 167 1.6 6.4 0.00 0.00 0.00 53 1024.0
20260502103027 8 165 3.2 6.4 0.00 0.00 0.00 52 1024.0
20260502102531 8 165 1.6 4.8 0.00 0.00 0.00 52 1024.0
20260502102028 8 186 1.6 4.8 0.00 0.00 0.00 53 1024.0
20260502101527 8 167 1.6 4.8 0.00 0.00 0.00 52 1023.9
20260502101026 8 146 0.0 4.8 0.00 0.00 0.00 51 1023.9
20260502100526 8 215 1.6 4.8 0.00 0.00 0.00 50 1023.9
20260502091524 8 215 0.0 4.8 0.00 0.00 0.00 46 1023.7
20260502091023 8 216 1.6 4.8 0.00 0.00 0.00 46 1023.8
20260502090523 8 215 1.6 6.4 0.00 0.00 0.00 45 1023.8
20260502071514 8 230 1.6 4.8 0.00 0.00 0.00 47 1024.1
20260502071011 8 250 1.6 3.2 0.00 0.00 0.00 47 1024.1
20260502070513 8 257 1.6 4.8 0.00 0.00 0.00 47 1024.1
20260502070019 7 224 3.2 4.8 0.00 0.00 0.00 48 1024.1
20260502065510 7 243 0.0 0.0 0.00 0.00 0.00 51 1024.1
20260502065011 8 236 0.0 0.0 0.00 0.00 0.00 50 1024.1
20260502064507 8 236 0.0 0.0 0.00 0.00 0.00 48 1024.1
20260502064006 8 236 0.0 1.6 0.00 0.00 0.00 47 1024.1
20260502063507 8 236 0.0 1.6 0.00 0.00 0.00 48 1024.0
20260502063007 8 236 0.0 3.2 0.00 0.00 0.00 49 1024.0
20260502062505 8 236 0.0 4.8 0.00 0.00 0.00 48 1024.0
20260502062005 8 238 3.2 4.8 0.00 0.00 0.00 47 1024.0
20260502061504 8 238 0.0 0.0 0.00 0.00 0.00 49 1024.0
20260502061004 8 161 0.0 0.0 0.00 0.00 0.00 49 1023.9
20260502060502 8 160 0.0 0.0 0.00 0.00 0.00 48 1023.9
20260502060001 8 160 0.0 0.0 0.00 0.00 0.00 48 1023.9
20260502055502 8 154 0.0 0.0 0.00 0.00 0.00 46 1023.9
20260502055003 9 154 0.0 0.0 0.00 0.00 0.00 46 1023.9
20260502054500 9 153 0.0 0.0 0.00 0.00 0.00 42 1023.9
20260502054000 9 126 0.0 0.0 0.00 0.00 0.00 44 1023.9
20260502053500 9 157 0.0 1.6 0.00 0.00 0.00 43 1023.8
20260502053100 10 157 0.0 1.6 0.00 0.00 0.00 42 1023.8
20260502052600 10 186 0.0 0.0 0.00 0.00 0.00 40 1023.8
20260502052102 10 149 0.0 0.0 0.00 0.00 0.00 39 1023.8
20260502051600 10 244 0.0 0.0 0.00 0.00 0.00 38 1023.8
20260502051101 10 258 0.0 0.0 0.00 0.00 0.00 38 1023.7
20260502050600 10 259 0.0 3.2 0.00 0.00 0.00 38 1023.8
20260502050100 10 261 0.0 3.2 0.00 0.00 0.00 38 1023.8
20260502045600 10 269 1.6 4.8 0.00 0.00 0.00 38 1023.8
20260502045100 10 264 0.0 3.2 0.00 0.00 0.00 38 1023.8
20260502044600 11 247 0.0 0.0 0.00 0.00 0.00 38 1023.8
20260502044058 11 257 0.0 0.0 0.00 0.00 0.00 38 1023.8
20260502043558 11 250 0.0 0.0 0.00 0.00 0.00 38 1023.7
20260502043108 11 262 0.0 0.0 0.00 0.00 0.00 38 1023.8
20260502042601 11 148 0.0 0.0 0.00 0.00 0.00 37 1023.7
20260502042059 11 145 0.0 0.0 0.00 0.00 0.00 37 1023.7
20260502041559 11 249 0.0 3.2 0.00 0.00 0.00 36 1023.7
20260502041058 11 267 0.0 4.8 0.00 0.00 0.00 35 1023.6
20260502040558 11 255 0.0 4.8 0.00 0.00 0.00 35 1023.6
20260502040058 11 276 1.6 4.8 0.00 0.00 0.00 35 1023.5
20260502035600 11 246 0.0 3.2 0.00 0.00 0.00 35 1023.5
20260502035057 11 252 1.6 3.2 0.00 0.00 0.00 35 1023.4
20260502034557 11 261 0.0 0.0 0.00 0.00 0.00 35 1023.4
20260502034057 12 251 0.0 0.0 0.00 0.00 0.00 35 1023.3
20260502033556 12 252 0.0 4.8 0.00 0.00 0.00 35 1023.2
20260502033058 12 275 1.6 4.8 0.00 0.00 0.00 34 1023.2
20260502032556 12 274 1.6 3.2 0.00 0.00 0.00 34 1023.1
20260502032059 12 277 1.6 4.8 0.00 0.00 0.00 34 1023.0
20260502031557 12 269 1.6 4.8 0.00 0.00 0.00 33 1023.0
20260502031059 13 274 3.2 4.8 0.00 0.00 0.00 33 1022.9
20260502030555 13 257 1.6 4.8 0.00 0.00 0.00 32 1022.8
20260502030059 13 275 1.6 4.8 0.00 0.00 0.00 32 1022.7
20260502025555 13 280 1.6 3.2 0.00 0.00 0.00 31 1022.6
20260502025058 13 274 1.6 3.2 0.00 0.00 0.00 31 1022.6
20260502024556 14 284 0.0 8.0 0.00 0.00 0.00 30 1022.5
20260502024055 14 290 3.2 8.0 0.00 0.00 0.00 29 1022.5
20260502023558 15 291 1.6 6.4 0.00 0.00 0.00 29 1022.5
20260502023057 15 307 3.2 8.0 0.00 0.00 0.00 28 1022.4
20260502022556 15 318 3.2 8.0 0.00 0.00 0.00 27 1022.4
20260502022054 15 324 3.2 6.4 0.00 0.00 0.00 27 1022.4
20260502021555 15 325 1.6 9.7 0.00 0.00 0.00 27 1022.4
20260502021054 15 342 4.8 9.7 0.00 0.00 0.00 26 1022.4
20260502020554 16 324 6.4 11.3 0.00 0.00 0.00 25 1022.4
20260502020054 16 312 4.8 12.9 0.00 0.00 0.00 25 1022.2
20260502015554 16 308 0.0 14.5 0.00 0.00 0.00 25 1022.2
20260502015054 16 304 6.4 14.5 0.00 0.00 0.00 25 1022.2
20260502014553 16 305 6.4 14.5 0.00 0.00 0.00 25 1022.2
20260502014053 16 319 8.0 16.1 0.00 0.00 0.00 25 1022.2
20260502013554 16 293 9.7 17.7 0.00 0.00 0.00 25 1022.1
20260502013055 16 305 6.4 14.5 0.00 0.00 0.00 25 1022.1
20260502012552 17 298 4.8 16.1 0.00 0.00 0.00 25 1022.0
20260502012052 17 353 8.0 16.1 0.00 0.00 0.00 25 1022.0
20260502011556 16 328 6.4 17.7 0.00 0.00 0.00 25 1022.0
20260502011052 16 273 8.0 16.1 0.00 0.00 0.00 25 1022.0
20260502010551 16 330 8.0 19.3 0.00 0.00 0.00 25 1022.1
20260502010054 17 4 8.0 20.9 0.00 0.00 0.00 25 1022.1
20260502005551 17 273 6.4 19.3 0.00 0.00 0.00 25 1022.1
20260502005051 17 301 8.0 19.3 0.00 0.00 0.00 25 1022.1
20260502004605 17 248 9.7 16.1 0.00 0.00 0.00 25 1022.1
20260502004051 17 357 8.0 20.9 0.00 0.00 0.00 25 1022.0
20260502003550 17 1 12.9 20.9 0.00 0.00 0.00 25 1022.1
20260502003050 17 341 11.3 19.3 0.00 0.00 0.00 24 1022.0
20260502002549 17 330 6.4 17.7 0.00 0.00 0.00 25 1022.1
20260502002049 17 328 9.7 19.3 0.00 0.00 0.00 24 1022.1
20260502001649 17 347 8.0 19.3 0.00 0.00 0.00 24 1022.1
20260502001049 17 342 6.4 17.7 0.00 0.00 0.00 24 1022.1
20260502000548 17 10 11.3 25.7 0.00 0.00 0.00 24 1022.2
20260502000055 17 32 12.9 25.7 0.00 0.00 0.00 25 1022.2
20260501235547 17 59 11.3 24.1 0.00 0.00 0.00 24 1022.2
20260501235046 17 356 11.3 24.1 0.00 0.00 0.00 25 1022.3
20260501234546 17 323 14.5 29.0 0.00 0.00 0.00 24 1022.3
20260501234048 17 354 16.1 29.0 0.00 0.00 0.00 24 1022.2
20260501233547 17 351 11.3 19.3 0.00 0.00 0.00 24 1022.2
20260501233047 17 331 8.0 19.3 0.00 0.00 0.00 24 1022.2
20260501232547 17 306 8.0 19.3 0.00 0.00 0.00 24 1022.2
20260501232046 17 314 11.3 19.3 0.00 0.00 0.00 24 1022.2
20260501231545 17 58 9.7 20.9 0.00 0.00 0.00 24 1022.2
20260501231045 17 340 8.0 22.5 0.00 0.00 0.00 23 1022.3
20260501230545 17 359 8.0 22.5 0.00 0.00 0.00 24 1022.3
20260501230044 17 352 4.8 22.5 0.00 0.00 0.00 24 1022.3
20260501225547 17 321 9.7 22.5 0.00 0.00 0.00 22 1022.4
20260501225045 17 319 3.2 16.1 0.00 0.00 0.00 23 1022.4
20260501224543 17 8 4.8 20.9 0.00 0.00 0.00 24 1022.4
20260501224042 17 316 4.8 20.9 0.00 0.00 0.00 22 1022.5
20260501223542 17 11 6.4 19.3 0.00 0.00 0.00 23 1022.4
20260501223041 17 41 8.0 19.3 0.00 0.00 0.00 22 1022.5
20260501222541 17 342 9.7 22.5 0.00 0.00 0.00 22 1022.5
20260501222041 17 303 8.0 24.1 0.00 0.00 0.00 22 1022.5
20260501221541 17 341 9.7 24.1 0.00 0.00 0.00 22 1022.6
20260501221042 17 1 9.7 20.9 0.00 0.00 0.00 22 1022.7
20260501220540 17 35 11.3 20.9 0.00 0.00 0.00 20 1022.7
20260501220042 17 61 8.0 22.5 0.00 0.00 0.00 21 1022.7
20260501215541 17 335 11.3 22.5 0.00 0.00 0.00 21 1022.7
20260501215039 17 56 6.4 19.3 0.00 0.00 0.00 22 1022.9
20260501214539 17 329 4.8 16.1 0.00 0.00 0.00 23 1022.9
20260501214038 17 264 1.6 17.7 0.00 0.00 0.00 23 1022.9
20260501213538 17 335 6.4 19.3 0.00 0.00 0.00 22 1023.0
20260501213051 17 22 6.4 20.9 0.00 0.00 0.00 23 1023.0
20260501212538 17 24 9.7 20.9 0.00 0.00 0.00 22 1023.0
20260501212037 17 27 9.7 22.5 0.00 0.00 0.00 23 1023.1
20260501211537 17 13 9.7 22.5 0.00 0.00 0.00 23 1023.1
20260501211037 17 46 8.0 22.5 0.00 0.00 0.00 22 1023.2
20260501210537 17 303 9.7 16.1 0.00 0.00 0.00 23 1023.2
20260501210037 17 15 6.4 22.5 0.00 0.00 0.00 23 1023.2
20260501205537 17 25 12.9 22.5 0.00 0.00 0.00 22 1023.3
20260501205042 17 14 8.0 14.5 0.00 0.00 0.00 23 1023.3
20260501204536 17 292 1.6 12.9 0.00 0.00 0.00 22 1023.3
20260501204038 17 293 6.4 16.1 0.00 0.00 0.00 25 1023.4
20260501203535 17 341 8.0 16.1 0.00 0.00 0.00 22 1023.3
20260501203034 17 48 0.0 8.0 0.00 0.00 0.00 23 1023.3
20260501202534 17 198 3.2 11.3 0.00 0.00 0.00 24 1023.3
20260501202036 17 143 6.4 19.3 0.00 0.00 0.00 22 1023.5
20260501201533 17 11 11.3 19.3 0.00 0.00 0.00 23 1023.4
20260501201034 17 324 6.4 14.5 0.00 0.00 0.00 23 1023.4
20260501200534 17 330 6.4 12.9 0.00 0.00 0.00 24 1023.5
20260501200031 16 94 6.4 14.5 0.00 0.00 0.00 23 1023.6
20260501195532 16 307 6.4 20.9 0.00 0.00 0.00 24 1023.7
20260501195030 16 346 9.7 20.9 0.00 0.00 0.00 24 1023.7
20260501194530 16 22 9.7 19.3 0.00 0.00 0.00 23 1023.7
20260501194030 16 13 6.4 16.1 0.00 0.00 0.00 26 1023.8
20260501193530 16 343 1.6 16.1 0.00 0.00 0.00 23 1023.8
20260501193029 16 321 8.0 14.5 0.00 0.00 0.00 23 1023.9
20260501192527 16 317 4.8 19.3 0.00 0.00 0.00 24 1024.0
20260501192027 16 58 11.3 19.3 0.00 0.00 0.00 23 1024.0
20260501191529 16 32 8.0 19.3 0.00 0.00 0.00 23 1024.1
20260501191027 16 316 12.9 19.3 0.00 0.00 0.00 23 1024.1
20260501190527 15 27 4.8 20.9 0.00 0.00 0.00 24 1024.1
20260501190025 15 40 9.7 20.9 0.00 0.00 0.00 22 1024.2
20260501185525 15 20 8.0 20.9 0.00 0.00 0.00 22 1024.2
20260501185024 15 12 3.2 19.3 0.00 0.00 0.00 24 1024.2
20260501184524 15 298 9.7 22.5 0.00 0.00 0.00 23 1024.3
20260501184024 15 34 8.0 16.1 0.00 0.00 0.00 24 1024.3
20260501183524 16 332 8.0 16.1 0.00 0.00 0.00 24 1024.4
20260501183023 15 37 3.2 16.1 0.00 0.00 0.00 25 1024.4
20260501182522 15 39 4.8 19.3 0.00 0.00 0.00 25 1024.5
20260501182021 15 356 4.8 17.7 0.00 0.00 0.00 26 1024.6
20260501181521 15 344 6.4 17.7 0.00 0.00 0.00 24 1024.5
20260501181020 15 49 6.4 17.7 0.00 0.00 0.00 24 1024.6
20260501180520 15 82 9.7 19.3 0.00 0.00 0.00 23 1024.6
20260501180027 15 66 3.2 14.5 0.00 0.00 0.00 23 1024.6
20260501175518 15 79 6.4 20.9 0.00 0.00 0.00 24 1024.7
20260501175016 15 65 12.9 20.9 0.00 0.00 0.00 24 1024.7
20260501174520 15 113 6.4 19.3 0.00 0.00 0.00 25 1024.7
20260501174015 14 325 8.0 20.9 0.00 0.00 0.00 25 1024.7
20260501173519 15 297 9.7 20.9 0.00 0.00 0.00 25 1024.7
20260501173013 14 131 3.2 12.9 0.00 0.00 0.00 29 1024.6
20260501172513 14 61 6.4 17.7 0.00 0.00 0.00 29 1024.9
20260501172013 14 296 3.2 14.5 0.00 0.00 0.00 29 1024.9
20260501171515 14 312 9.7 16.1 0.00 0.00 0.00 29 1024.9
20260501171115 14 333 8.0 16.1 0.00 0.00 0.00 29 1024.9
20260501170510 13 47 0.0 8.0 0.00 0.00 0.00 30 1025.0
20260501170010 13 101 1.6 12.9 0.00 0.00 0.00 30 1025.0